Back to catalog

MMS 2

AliveScienceHEO
NORAD 40483·PAYLOAD·🇺🇸 United States

Launched Mar 13, 2015 from Cape Canaveral Space Force Station

Loading…

Next Passes (next 24 hours)

TLE

FreshSource: Space-Track

Epoch: Sep 14, 2026, 16:00 UTC

1 40483U 15011B   26257.66671296 -.00001854  00000-0  00000-0 0  9991
2 40483  72.9574 347.7727 8259704 169.3948  66.2148  0.28336106  1419

Track MMS 2 in real time with AllMySat

Download on the App Store